Regional Weather Roundup
Issued by NWS

Home | Current Version | Previous Version | Text Only | Print | Product List | Glossary Off
Versions: 1 2 3 4 5 6 7 8 9 10 11 12 13 14 15 16 17 18 19 20 21 22 23 24 25 26 27 28 29 30 31 32 33 34 35 36 37 38 39 40 41 42 43 44 45 46 47 48 49 50

000
ASUS43 KFSD 312102
RWRSD

WEATHER ROUNDUP FOR SOUTH DAKOTA
NATIONAL WEATHER SERVICE SIOUX FALLS SD
400 PM CDT MON AUG 31 2015

NOTE: "FAIR" INDICATES FEW OR NO CLOUDS BELOW 12,000 FEET WITH NO
SIGNIFICANT WEATHER AND/OR OBSTRUCTIONS TO VISIBILITY.


SDZ001>005-009-010-012>017-312200-
NORTHWEST AND NORTH CENTRAL SOUTH DAKOTA

CITY           SKY/WX    TMP DP  RH WIND       PRES   REMARKS
FAITH            N/A     76  46  34 N5        29.95F
MOBRIDGE       FAIR      82  59  45 N6        29.88F
$$

SDZ012>016-024>037-041>051-057-063-072>074-312200-
SOUTHWEST AND SOUTH CENTRAL SOUTH DAKOTA

CITY           SKY/WX    TMP DP  RH WIND       PRES   REMARKS
RAPID CTY ARPT FAIR      74  55  51 SE7       29.99F
PIERRE         FAIR      74  61  63 N9        29.90F
CUSTER         FAIR      72  52  49 S6        30.09F
ELLSWORTH AFB  FAIR      75  55  50 VRB1      29.98F
PHILIP         FAIR      78  60  53 NE3       29.94F
PINE RIDGE     FAIR      76  56  49 NE6       29.99F
WINNER         FAIR      81  60  48 N12       29.92S
$$

SDZ004>011-016>023-039-040-312200-
NORTHEAST SOUTH DAKOTA

CITY           SKY/WX    TMP DP  RH WIND       PRES   REMARKS
ABERDEEN       FAIR      76  62  62 N8        29.88R
WATERTOWN      FAIR      83  65  54 W9        29.85S
BROOKINGS      FAIR      82  70  65 S15       29.88S
$$

SDZ017-020-022-023-036>040-048>070-312200-
SOUTHEAST SOUTH DAKOTA

CITY           SKY/WX    TMP DP  RH WIND       PRES   REMARKS
SIOUX FALLS    FAIR      82  69  64 S16G24    29.86F
HURON          FAIR      81  65  58 NW13      29.85R
CHAMBERLAIN    FAIR      81  64  55 N8        29.88S
MITCHELL       FAIR      89  64  43 SW6       29.83S
YANKTON        FAIR      84  70  61 S15       29.85S
$$

ABBREVIATIONS USED IN REMARKS
   TC - TEMPERATURE IN CELSIUS
  WCI - WIND CHILL INDEX
   HX - HEAT INDEX
  VSB - VISIBILITY



USA.gov is the U.S. government's official web portal to all federal, state and local government web resources and services.